Location: Brahman Valley
(40.6513°N, 111.8855°W)
Time: 08:56:37
(UTC+00:00)

Hubble Space Telescope - Visible Passes

Search period start: 17 April 2021 00:00
Search period end: 27 April 2021 00:00
Orbit: 535 x 539 km, 28.5° (Epoch: 16 April)

Date Brightness Start Highest point End Pass type
(mag) Time Alt. Az. Time Alt. Az. Time Alt. Az.
22 Apr 2.9 02:52:45 10° S 02:53:53 11° SSE 02:55:01 10° SSE visible
23 Apr 2.9 02:41:09 10° SSW 02:42:50 12° S 02:44:32 10° SE visible
23 Apr 3.3 04:20:53 10° SW 04:21:08 11° SW 04:21:08 11° SW visible
24 Apr 3.0 04:09:57 10° SW 04:10:57 13° SSW 04:10:57 13° SSW visible
25 Apr 2.9 03:59:05 10° SW 04:00:42 13° SSW 04:00:42 13° SSW visible
26 Apr 2.9 03:48:18 10° SW 03:50:08 13° S 03:50:24 13° S visible
